Wind_Speed
49 49 50 47 47 48 46 45 44 43 42 42 42 43 43 43 43 45 44 42 38 34 36 38 34 34 39 43 46 45 44 48 51 51 50 50 49 50 50 51 52 52 53 55 56 57 58 59 60 60 60 61 61 60 59 59 61 63 65 66 66 67 67 67 69 71 73 76 79 80 82 84 86 89 91 94 97 99 100 101 102 103 104 105 106 105
50 52 53 50 49 50 47 46 45 44 43 43 43 43 45 45 43 45 46 45 42 37 37 39 36 36 40 43 47 48 49 52 53 53 53 53 53 53 54 55 55 54 55 56 57 58 60 61 62 62 63 63 63 63 62 62 64 66 67 67 68 68 68 68 70 73 76 79 80 82 84 87 89 91 94 96 98 100 101 102 103 104 105 105 105 104
52 54 56 54 52 51 49 48 47 45 45 44 44 44 45 46 44 45 48 48 46 41 39 40 37 36 41 45 49 50 52 57 57 56 57 56 58 59 59 58 57 57 56 56 59 60 61 63 64 65 64 65 65 64 64 64 66 67 68 68 69 70 69 70 73 77 80 81 82 84 87 89 91 93 95 97 99 100 101 102 103 104 105 105 104 102
54 56 57 56 54 52 51 51 50 47 46 45 46 46 45 47 46 46 49 49 49 46 43 42 38 36 41 47 52 52 52 59 62 59 59 61 63 63 62 61 60 59 57 58 60 62 63 65 65 65 65 65 65 64 65 67 68 68 69 69 70 72 72 73 77 82 83 83 84 86 89 91 93 95 97 99 100 101 102 103 104 104 104 103 101 100
56 59 58 57 56 55 54 53 53 50 47 47 48 48 46 47 48 48 49 49 49 49 48 48 42 36 39 46 53 55 53 59 63 61 63 66 66 65 64 64 62 61 60 60 62 63 64 65 65 65 64 64 65 66 68 69 68 69 70 71 73 75 75 76 81 85 85 85 87 89 92 95 96 99 100 101 102 103 104 104 105 105 103 100 97 96
57 61 59 58 58 57 56 56 56 53 48 48 50 52 49 48 50 50 50 49 49 50 51 54 51 40 36 43 50 55 56 60 61 61 65 69 68 67 66 64 63 63 62 61 63 64 64 65 65 64 64 64 66 68 69 70 70 71 73 75 77 77 78 80 84 86 87 88 90 92 95 98 99 101 102 103 104 105 105 105 105 104 101 97 95 94
59 62 60 59 58 58 58 58 58 55 51 50 52 53 52 50 51 51 52 52 50 51 51 56 60 45 34 40 49 54 59 63 62 61 65 69 69 68 66 64 64 63 62 62 63 64 64 64 64 64 65 66 68 69 70 71 73 75 76 77 79 79 81 84 86 88 89 91 93 96 98 100 101 102 103 104 105 105 105 105 104 102 98 95 93 92
60 61 61 61 59 59 59 59 59 58 55 53 53 54 54 53 54 53 54 55 54 53 51 57 65 51 36 41 50 54 61 64 63 62 65 68 68 67 66 64 63 62 62 62 63 64 64 65 65 65 67 68 70 71 72 73 75 77 78 79 80 82 84 87 88 90 92 94 96 99 101 103 104 104 104 105 105 105 104 104 102 99 96 94 92 91
61 61 61 62 60 60 60 60 60 61 59 57 56 56 56 57 57 56 57 58 58 56 53 58 65 56 43 43 50 56 62 64 61 61 64 65 65 66 66 64 62 62 62 62 63 64 64 65 66 68 69 71 72 74 74 75 77 79 80 81 83 85 88 90 91 92 94 96 99 102 104 105 106 106 106 106 105 105 104 103 100 97 94 92 90 90
62 61 62 62 61 61 61 62 62 63 62 60 59 58 60 60 59 59 60 61 63 59 56 60 64 58 47 45 52 58 59 58 56 57 62 64 65 67 65 63 62 62 62 62 63 63 64 66 68 70 71 73 74 75 76 77 79 81 82 84 87 89 91 92 93 94 97 100 103 104 106 107 108 108 108 107 107 106 105 102 99 95 91 89 89 88
62 61 61 61 62 62 63 64 64 65 64 63 63 62 63 63 61 62 63 65 66 60 58 62 62 58 51 46 51 54 51 52 52 56 61 63 66 67 64 62 62 62 62 62 63 64 66 67 70 71 72 74 76 77 78 79 81 83 85 88 90 91 93 94 96 98 101 104 106 107 108 109 109 109 109 108 107 107 105 101 97 92 89 87 87 87
62 61 62 63 64 65 66 66 66 67 67 66 65 66 66 66 65 66 66 68 67 61 60 62 60 58 51 45 48 50 49 51 53 57 60 62 66 66 64 63 63 63 63 63 64 66 68 70 70 72 74 77 79 79 80 81 83 86 89 91 93 95 96 97 99 101 103 106 108 109 110 111 111 110 110 109 108 107 104 99 93 89 87 86 86 85
63 63 65 66 67 68 67 67 68 68 68 67 67 69 69 69 71 69 68 69 67 63 62 62 59 56 50 45 48 51 52 53 56 59 60 63 66 65 64 65 64 64 65 65 66 68 70 71 72 74 78 80 81 81 82 84 87 90 93 95 97 98 99 100 101 102 105 108 110 111 112 112 112 112 111 110 109 107 102 96 90 86 84 83 84 84
65 63 65 68 67 67 67 69 70 70 70 69 69 71 71 73 75 73 69 69 67 64 63 63 60 54 48 47 48 51 54 57 60 61 62 66 67 65 65 66 67 67 67 68 70 71 71 72 76 80 82 82 83 84 86 88 91 94 95 97 99 99 100 101 102 105 108 110 111 112 113 114 113 113 111 110 108 105 99 92 87 84 83 82 82 83
67 62 63 68 68 67 69 71 71 71 71 71 71 72 73 75 79 76 72 72 71 67 63 63 60 52 49 48 47 52 57 60 63 64 66 69 68 67 68 69 69 69 69 71 73 74 75 78 82 84 84 84 86 88 90 92 95 97 98 100 101 101 101 103 105 108 111 112 113 113 114 114 114 113 111 109 107 101 95 89 85 83 83 83 84 85
71 64 63 68 69 69 71 71 72 73 73 72 73 74 75 77 79 79 77 76 77 72 62 59 58 50 48 47 48 55 60 64 67 66 68 71 69 69 70 69 70 70 71 74 75 77 80 83 85 86 86 88 90 92 94 97 99 100 102 103 104 104 104 106 108 110 112 113 113 114 115 115 114 112 110 107 104 98 93 89 86 85 85 86 87 88
74 69 67 70 71 71 72 72 73 74 74 75 75 76 78 79 80 81 82 80 80 76 62 56 55 47 44 45 49 56 63 67 68 68 71 73 71 70 70 69 71 73 74 75 77 80 83 84 86 87 89 91 93 96 98 101 102 103 104 104 105 106 107 108 109 111 112 112 113 114 114 114 113 111 109 105 101 97 92 89 88 88 89 90 91 91
79 75 72 72 74 74 75 75 74 74 76 78 77 77 79 80 80 83 85 82 81 79 65 55 54 48 45 47 50 56 65 68 67 68 72 74 73 72 71 72 75 76 78 79 81 83 83 85 88 90 92 94 97 101 103 105 105 104 103 104 106 107 107 108 109 110 111 112 113 113 113 113 111 109 106 103 100 96 93 91 90 91 92 93 94 94
84 82 76 75 76 77 76 76 75 76 79 78 77 76 77 80 82 84 86 83 81 82 73 61 56 51 48 51 54 60 68 69 67 69 74 77 77 76 75 76 79 81 82 84 85 85 85 87 91 93 96 99 102 105 106 105 104 103 105 106 107 107 106 107 109 110 111 111 112 112 112 110 108 106 104 102 100 96 93 92 93 94 95 95 96 95
86 87 82 77 77 77 75 74 76 77 78 76 74 75 76 81 84 85 85 84 83 86 81 71 61 50 49 55 59 65 71 70 68 71 77 81 80 78 78 80 82 84 85 87 87 87 88 91 95 97 100 103 105 105 104 103 103 104 106 107 107 107 107 108 109 109 110 110 110 110 108 107 105 103 102 102 99 96 94 94 95 96 96 96 96 95
88 90 87 81 78 76 73 74 76 75 76 76 75 76 78 83 86 85 84 83 85 88 85 81 69 51 49 60 64 68 72 69 70 76 81 83 81 79 81 83 84 85 87 89 89 90 94 97 100 102 104 106 105 105 104 105 106 107 107 107 107 108 108 108 108 108 108 108 107 106 105 103 102 102 103 102 99 97 96 97 98 98 97 96 95 94
91 94 92 85 79 76 74 75 75 75 76 77 78 79 81 84 86 86 85 83 86 87 84 87 80 57 52 63 68 70 72 70 75 82 85 86 84 83 84 84 86 87 90 92 94 97 101 103 104 105 106 106 106 106 106 107 107 107 107 108 108 108 108 108 107 107 106 105 104 103 102 101 102 103 103 102 100 98 98 99 100 99 97 96 94 93
94 97 94 87 82 78 75 74 75 76 78 80 81 81 83 84 85 88 89 86 87 87 84 90 87 63 55 67 72 72 74 75 81 87 88 88 86 85 86 87 88 91 94 97 99 102 104 104 105 106 105 106 106 106 106 106 107 108 109 109 109 109 108 107 106 105 104 103 102 101 100 101 103 104 104 102 100 100 100 101 100 99 97 95 94 93
96 98 95 91 86 80 76 75 76 78 81 83 83 83 83 85 86 89 91 89 90 88 85 94 92 70 64 73 75 75 79 81 85 89 89 88 86 86 88 90 93 96 98 101 103 104 104 104 105 105 105 106 106 107 107 107 108 109 110 110 109 109 108 106 105 103 102 101 100 100 100 102 104 105 104 103 101 101 102 101 99 98 97 96 95 94
98 98 96 93 88 82 78 77 78 81 85 87 84 84 85 86 87 89 90 92 92 86 86 96 93 77 73 77 77 79 84 86 89 91 89 87 88 89 91 94 99 101 102 103 104 104 104 105 105 105 105 106 107 107 107 108 109 110 110 110 109 108 107 106 104 102 100 99 99 100 102 103 105 106 105 103 103 102 102 100 98 97 97 96 96 95
100 98 96 93 89 84 80 78 80 83 87 87 84 84 86 86 87 87 88 92 91 86 90 95 91 83 79 79 81 85 88 90 92 91 89 90 92 94 97 101 102 103 104 106 106 106 106 107 107 107 107 107 107 107 108 108 109 109 109 109 108 107 106 104 102 100 99 99 99 101 103 105 106 106 105 104 103 102 101 99 97 97 97 98 98 97
101 99 95 93 91 89 85 83 85 87 88 87 85 84 85 85 87 87 86 90 90 92 96 93 88 90 85 80 85 89 90 93 95 93 93 97 99 101 104 106 104 105 107 108 108 108 108 108 107 107 107 107 107 107 107 108 107 107 107 106 106 105 104 103 101 100 99 99 100 102 104 105 106 106 105 104 103 102 100 98 97 97 98 99 99 97
102 99 95 93 94 93 91 89 90 92 92 90 88 87 85 86 88 87 85 87 91 99 101 91 90 98 92 85 90 94 95 99 98 98 102 105 106 108 108 107 107 107 108 108 109 109 108 107 106 105 106 106 105 105 106 106 105 104 104 104 104 104 102 101 100 100 100 100 101 103 104 106 106 106 105 104 103 101 99 98 98 99 100 100 100 99
104 102 97 96 98 96 94 92 94 97 98 96 94 91 87 87 88 87 87 91 96 103 101 94 96 101 95 91 96 99 101 105 105 106 109 110 110 111 110 110 110 109 109 110 110 110 109 107 105 105 105 105 104 105 105 105 104 103 102 102 103 102 101 101 100 100 100 101 102 104 105 106 106 106 106 104 103 101 100 99 99 100 101 102 101 100
107 105 100 100 102 100 97 95 98 102 102 101 99 92 87 88 90 92 95 97 100 102 100 98 101 100 93 95 102 104 106 110 112 111 111 111 111 111 111 112 112 110 110 111 111 111 109 107 106 106 106 105 105 106 106 105 104 102 102 102 102 102 101 100 100 100 101 103 104 105 106 106 107 107 106 104 103 102 101 100 101 102 103 103 103 102
110 109 105 106 109 106 99 97 102 105 105 106 102 91 87 92 96 99 99 99 101 102 101 101 103 98 94 99 106 108 111 113 113 111 111 112 111 111 113 114 112 111 111 111 111 111 110 109 109 109 108 107 107 107 107 106 104 103 103 103 102 102 101 100 100 102 103 105 106 106 106 107 107 107 106 105 104 103 102 102 102 103 103 104 105 104
113 112 109 110 113 109 102 102 105 107 109 110 101 89 90 99 104 102 101 101 104 106 105 104 103 101 101 105 109 111 111 111 110 111 112 111 110 112 114 114 112 112 112 112 112 111 110 110 110 110 109 108 108 108 107 106 105 106 106 105 104 103 103 102 103 104 106 107 107 107 107 108 108 107 107 106 105 105 104 103 104 104 105 106 106 105
114 114 113 114 117 115 110 109 110 112 114 107 95 91 99 106 106 104 103 105 106 108 108 107 106 106 109 110 110 110 108 108 110 111 110 110 112 114 115 113 113 113 113 112 112 111 110 110 110 110 110 110 109 108 108 108 109 109 109 107 106 106 106 106 106 107 109 109 109 108 108 109 108 108 108 108 107 107 106 105 105 106 106 107 107 105
116 116 117 119 122 120 116 114 115 117 112 101 95 99 103 103 103 106 108 108 107 107 109 108 107 110 112 112 112 110 107 108 110 109 109 112 116 116 114 114 115 115 113 112 112 111 111 110 111 111 111 111 110 109 110 111 112 112 111 110 110 110 110 110 109 111 112 112 111 110 109 109 109 110 110 110 109 109 108 108 107 108 108 109 108 106
120 120 121 123 125 124 120 119 120 117 109 101 100 101 100 100 103 108 110 107 104 105 107 108 110 113 114 113 113 110 108 109 109 109 113 118 119 116 114 116 116 115 113 112 112 111 111 111 112 112 112 111 110 110 112 114 115 115 114 114 114 114 114 113 113 114 115 114 113 111 111 111 111 112 112 112 112 111 111 111 110 110 111 111 110 107
123 125 126 126 128 128 125 124 123 118 111 105 102 100 101 104 106 109 110 105 99 100 104 109 113 116 116 116 113 111 111 111 111 113 119 122 119 115 116 117 115 113 112 112 112 111 111 112 112 112 112 111 111 112 114 116 116 117 117 117 117 118 117 116 116 117 117 116 115 113 113 113 113 114 115 115 114 114 114 114 113 113 113 113 112 108
127 129 130 131 131 131 130 128 125 122 115 107 102 102 106 110 110 112 114 103 93 96 104 110 116 120 118 116 113 112 115 116 115 117 121 122 119 116 116 115 112 110 110 110 111 111 111 112 113 113 112 112 113 114 116 117 118 119 119 120 120 120 119 119 119 119 119 118 116 115 115 115 116 116 116 116 116 116 116 116 115 115 115 114 112 108
131 132 132 134 134 134 133 130 126 123 117 108 104 107 112 115 115 120 119 101 88 95 106 114 121 122 119 117 116 118 120 120 118 119 121 121 118 116 115 112 109 108 108 109 110 110 111 112 113 113 114 113 114 116 118 118 119 119 120 121 121 121 120 120 121 121 121 120 118 117 116 117 118 118 117 117 117 117 117 117 116 116 115 114 112 107
133 134 134 137 137 135 134 131 128 126 119 112 112 114 117 118 121 125 120 98 88 98 112 119 124 125 122 122 123 123 124 123 121 121 121 120 117 115 114 112 109 108 108 109 110 110 111 112 113 114 114 114 116 118 119 119 119 120 121 121 122 121 121 121 122 123 122 122 120 119 118 119 120 119 118 118 118 118 118 117 116 116 116 114 112 106
135 135 136 139 138 136 136 135 131 127 122 118 119 121 122 124 127 126 114 100 100 112 121 123 127 127 125 125 125 125 125 124 123 121 120 119 117 116 115 113 111 110 110 110 111 110 111 113 114 114 114 115 117 119 120 120 120 120 121 122 122 122 122 123 124 124 124 122 121 120 120 121 120 119 118 118 118 118 118 117 117 116 115 114 111 105
136 136 137 139 139 139 139 137 134 130 125 123 125 127 130 132 129 122 115 114 120 126 125 125 128 129 128 127 126 126 125 123 122 121 120 119 118 116 116 114 112 112 113 112 111 110 111 113 114 114 115 116 119 121 122 121 121 121 121 122 123 123 124 124 125 125 124 123 122 122 122 121 120 119 118 118 118 118 117 116 116 116 115 113 110 103
135 135 138 140 141 140 140 140 139 135 129 127 130 135 137 136 131 126 126 128 130 128 127 128 130 131 130 128 128 128 126 123 122 121 120 120 119 118 116 115 114 114 114 112 110 110 111 113 114 115 117 119 120 122 122 122 121 121 122 123 124 124 125 126 126 125 124 123 123 123 123 122 120 119 118 118 118 117 117 116 116 115 113 112 109 101
136 138 140 141 140 140 142 143 142 136 131 131 135 139 139 137 135 134 134 134 133 131 130 130 130 131 130 129 129 130 126 123 122 122 121 121 120 119 117 116 116 115 114 113 112 111 113 115 117 119 120 121 123 123 123 123 122 122 123 124 125 126 127 127 127 126 125 125 125 124 123 122 120 119 119 119 118 117 116 115 115 114 112 111 107 98
142 141 139 138 139 141 144 144 141 137 135 136 138 139 139 139 138 137 137 137 135 134 132 130 130 130 130 128 129 127 125 123 123 123 123 122 121 121 120 119 117 116 115 115 115 115 116 118 119 121 122 123 124 124 124 124 123 124 125 126 126 128 128 128 128 127 126 126 126 125 124 122 120 120 120 119 118 117 115 114 113 112 111 109 104 96
144 141 139 140 142 144 144 144 142 139 138 138 137 138 139 139 137 136 137 137 136 134 133 131 130 129 129 128 127 125 124 124 124 124 124 124 124 124 123 121 119 117 116 116 117 118 119 119 119 121 122 124 125 125 125 124 124 125 126 127 128 129 130 130 129 128 128 128 127 125 124 122 120 120 120 120 119 117 114 113 111 110 109 107 101 92
142 140 140 142 143 144 144 143 141 138 138 138 138 138 138 137 136 135 135 135 134 133 131 130 129 129 129 128 127 125 125 126 126 126 126 126 127 126 124 123 121 119 118 118 118 119 119 119 120 121 123 125 125 125 126 125 126 127 128 129 130 131 131 131 130 130 130 129 127 125 123 122 121 121 121 121 120 117 114 111 109 108 107 104 98 89
140 138 140 142 143 145 145 141 138 137 137 138 138 137 136 135 134 134 134 133 132 131 130 129 129 128 129 129 128 127 127 127 127 127 128 129 128 128 127 125 123 122 121 120 120 121 120 120 120 122 123 125 125 126 126 126 127 128 130 131 131 132 132 132 132 132 131 129 126 124 122 121 121 122 122 122 120 118 114 110 108 106 105 101 94 86
138 136 138 140 142 143 142 139 136 136 136 137 136 135 134 133 132 131 131 131 131 130 129 129 129 129 130 130 128 127 127 127 128 129 130 131 130 129 128 127 125 124 123 122 122 122 121 120 121 122 124 125 125 126 127 128 129 130 131 132 132 133 133 134 134 134 132 128 125 123 121 121 121 122 123 123 121 118 114 110 107 106 104 99 91 82
136 135 136 137 138 138 137 133 132 133 134 134 132 131 130 130 130 130 131 131 131 130 130 130 130 129 128 128 128 128 128 129 131 132 133 133 132 131 129 128 127 127 125 124 123 122 122 122 123 124 125 126 126 127 128 129 130 131 132 133 134 134 135 135 135 134 131 127 125 123 121 121 121 122 123 123 121 118 115 110 106 104 102 97 88 78
132 131 131 131 132 132 129 125 124 127 130 129 127 126 128 129 130 131 133 133 132 131 131 131 130 128 126 127 128 129 129 131 133 134 135 135 133 131 130 130 130 129 127 126 125 124 124 124 125 126 128 128 128 128 129 130 132 132 133 134 135 136 137 136 135 133 130 127 125 123 121 121 122 122 122 122 120 119 116 111 107 103 100 95 86 76
126 124 124 124 125 124 120 116 115 119 122 122 121 122 125 129 131 132 133 133 132 132 133 133 132 130 129 129 130 130 131 132 133 134 134 134 133 132 131 131 130 129 129 127 126 125 125 126 127 129 130 130 129 129 130 132 133 134 135 136 137 138 137 136 134 131 129 126 124 123 122 122 122 122 121 120 119 117 115 111 108 104 100 94 86 76
Wind_Direction
280 283 284 286 290 292 292 291 289 289 291 291 290 290 290 292 297 299 301 304 305 303 299 299 304 299 293 292 293 295 296 295 296 299 301 305 307 307 307 307 308 310 311 313 315 315 315 312 311 311 311 312 310 308 305 304 306 307 307 307 307 308 309 308 308 308 308 308 310 311 311 311 310 310 309 308 307 307 306 306 305 305 305 305 304 303
280 282 283 286 289 290 291 290 288 288 290 289 289 288 287 289 295 297 299 303 305 305 301 300 304 301 297 297 296 296 298 297 298 300 303 305 305 304 304 305 306 308 309 312 313 313 312 310 310 310 310 309 308 307 305 303 305 306 306 306 306 307 307 307 309 309 308 308 308 310 310 310 309 309 308 307 306 306 305 305 305 305 305 305 304 302
279 281 283 286 288 290 290 289 287 287 288 288 287 286 286 288 293 296 298 302 304 305 303 300 303 303 300 300 298 298 300 300 300 301 303 304 303 302 303 304 305 306 308 311 312 310 309 309 309 309 309 308 306 306 305 304 304 305 306 305 305 306 305 305 307 309 309 308 307 308 308 308 308 307 306 305 305 304 304 304 305 305 305 305 303 301
279 280 283 286 288 289 289 288 286 285 287 288 286 285 286 288 292 295 297 300 302 303 303 300 302 304 303 303 300 299 301 300 300 302 304 304 303 303 304 304 305 306 308 310 310 308 307 307 308 308 308 306 305 304 304 304 304 305 305 304 305 306 304 304 306 308 308 307 306 306 306 306 305 304 304 303 303 303 303 303 304 304 304 303 302 300
279 281 283 285 288 288 289 287 284 285 288 288 284 284 287 289 292 294 296 298 300 302 302 300 300 302 305 306 301 301 303 299 300 305 306 305 304 303 304 305 306 307 309 309 308 306 305 306 306 307 306 305 304 304 304 304 304 305 305 303 304 305 304 304 306 307 307 306 305 305 305 305 304 303 303 302 302 302 303 303 304 305 304 302 301 299
281 281 283 285 286 287 288 285 283 285 288 287 284 283 287 290 292 295 296 297 298 299 301 301 299 301 309 307 300 302 302 298 300 305 305 303 302 302 303 304 306 308 308 307 306 305 305 305 305 305 305 304 303 304 304 303 304 305 304 303 304 304 304 305 306 306 306 305 304 304 304 304 304 304 303 303 302 303 303 304 305 304 303 302 300 299
280 281 283 284 285 286 286 284 283 286 287 286 283 283 287 289 291 294 295 296 296 297 302 301 296 302 311 305 300 301 298 296 301 304 302 300 299 299 300 302 305 307 307 305 304 304 303 304 304 303 302 302 302 303 303 304 304 304 304 303 304 304 305 306 306 305 305 304 304 304 304 304 304 304 304 303 303 303 303 303 304 303 302 300 299 299
279 280 282 283 284 285 284 283 284 286 287 286 282 282 286 288 290 293 294 296 296 300 306 298 295 305 312 303 302 299 295 297 302 303 298 295 295 296 297 301 305 306 305 304 303 303 303 304 304 302 301 301 302 303 303 304 305 305 304 304 303 304 306 306 305 304 304 304 304 304 304 304 304 304 304 304 304 304 303 303 303 302 300 299 299 299
278 280 281 283 284 284 283 283 284 285 287 286 283 283 286 287 290 292 293 294 296 303 306 296 296 307 313 309 302 295 295 299 301 298 293 292 292 294 297 302 304 304 303 302 302 303 304 304 303 301 301 301 302 303 305 306 306 306 305 304 304 305 305 304 304 304 304 304 304 304 304 304 304 305 306 306 306 305 304 303 302 301 300 299 299 299
279 280 281 282 283 283 283 284 285 286 287 286 284 285 286 287 290 291 293 294 297 303 302 295 298 307 314 313 301 295 298 299 296 293 290 290 292 294 298 302 302 301 301 301 302 303 304 304 303 302 302 302 304 305 306 307 307 306 306 305 304 304 304 303 303 303 304 305 305 304 304 304 305 306 307 307 307 306 305 304 303 301 301 301 301 300
279 280 282 283 283 283 284 285 286 286 287 287 287 287 287 289 290 290 293 295 298 302 299 295 301 308 314 311 298 296 298 295 294 291 289 291 292 294 299 302 301 300 301 301 302 303 304 303 303 302 303 304 306 306 306 306 306 306 306 305 305 304 304 303 302 303 304 305 305 305 305 306 307 307 308 308 307 306 305 304 304 303 303 303 303 302
280 282 283 283 284 284 285 286 286 286 287 288 288 288 289 289 290 290 293 295 298 300 296 296 302 308 314 308 298 299 299 296 294 290 290 291 292 295 300 300 300 300 301 302 302 303 303 302 302 302 304 305 306 306 305 305 306 306 306 306 305 305 304 303 303 304 305 306 306 307 307 307 308 308 308 307 306 305 305 304 304 305 305 305 304 303
281 282 284 284 285 286 286 286 285 286 287 288 289 289 290 290 290 291 294 296 297 297 295 298 303 308 310 304 300 303 301 297 293 291 291 291 291 296 299 298 299 301 302 302 302 302 302 301 302 303 304 305 305 304 304 304 305 305 306 306 305 305 304 304 304 305 306 307 307 307 308 308 308 308 308 307 306 305 305 305 306 306 306 306 305 305
281 283 285 285 285 286 286 285 286 287 287 289 290 290 291 292 291 292 295 296 295 293 295 300 304 307 305 301 303 304 300 296 293 292 292 290 292 296 297 296 298 300 301 302 302 302 301 301 303 304 304 303 303 303 303 303 304 305 305 306 305 305 304 304 304 305 306 307 308 307 308 308 308 308 307 307 306 307 307 307 308 308 308 308 307 306
282 284 285 285 285 286 285 286 287 288 288 290 291 291 292 292 293 296 297 295 292 291 296 301 302 304 301 300 303 300 297 295 293 293 292 292 294 295 295 297 298 300 301 301 302 303 303 303 303 303 303 303 303 303 304 304 304 305 305 305 305 304 304 304 305 305 306 307 307 307 307 307 308 308 308 307 307 309 309 310 311 311 311 310 309 308
283 284 284 283 284 285 285 286 286 287 289 291 291 291 292 293 295 298 296 293 292 293 298 299 299 301 300 301 302 299 297 296 294 295 295 295 296 296 297 299 301 302 301 301 303 303 303 303 303 303 303 303 304 304 305 305 305 305 305 305 305 304 304 305 305 306 306 306 306 307 307 307 308 308 308 309 310 311 312 312 313 313 313 312 311 310
284 284 282 282 283 283 284 284 285 288 290 290 290 291 293 295 296 295 293 292 292 294 298 299 297 299 300 301 301 298 297 295 296 297 297 296 297 297 298 300 301 302 300 301 303 303 302 302 302 303 303 303 304 305 305 305 305 305 305 305 305 305 305 305 306 306 306 306 306 307 307 308 308 309 309 311 313 313 314 314 315 315 315 314 313 311
284 283 282 282 282 282 283 284 286 288 288 288 290 293 295 295 294 292 291 292 293 294 297 298 297 300 303 301 299 297 293 293 295 297 295 294 296 297 298 300 301 300 300 300 301 301 301 301 302 303 303 304 304 305 305 305 305 305 305 305 306 306 306 306 306 306 306 306 307 307 308 308 309 310 312 313 314 315 315 316 317 317 317 315 314 313
283 282 281 282 282 281 282 285 287 287 287 289 292 294 294 293 291 290 290 292 294 294 295 296 296 301 304 301 299 295 291 291 295 295 294 295 296 298 300 301 300 300 300 300 300 301 302 301 301 302 303 305 305 306 306 305 305 305 305 306 307 307 307 306 306 306 307 307 307 307 308 309 310 312 314 315 315 316 317 318 318 318 317 316 315 314
281 281 281 281 281 282 285 287 287 287 289 291 292 291 291 290 288 289 291 294 295 294 295 296 296 301 304 301 298 294 291 293 295 295 295 295 297 299 300 301 301 300 301 301 301 302 303 303 303 303 304 305 306 306 306 306 305 305 306 306 307 307 307 307 307 307 307 307 308 308 309 311 313 315 316 316 316 318 319 319 319 319 318 317 316 314
281 281 281 281 282 285 287 287 287 289 290 290 290 290 288 287 288 290 292 294 294 294 297 297 296 302 303 299 297 293 291 292 294 294 295 295 297 299 300 301 301 301 301 301 302 303 303 304 304 304 304 305 306 306 306 306 306 306 306 306 306 307 307 307 307 307 308 308 308 309 312 314 316 317 317 317 318 319 320 320 320 320 319 318 317 315
281 281 281 283 285 286 287 288 289 290 289 289 289 288 287 287 290 292 292 293 294 295 297 296 296 300 303 298 295 292 292 293 294 294 295 295 298 299 300 300 301 301 302 302 303 303 303 304 304 304 304 305 306 306 306 306 306 306 306 306 306 307 307 307 307 308 308 309 311 312 315 317 318 318 318 318 320 321 321 321 321 320 319 319 318 317
280 280 282 284 285 286 287 289 289 289 288 287 286 285 286 289 291 292 292 293 293 294 296 295 293 298 302 297 294 294 295 296 295 295 295 297 299 299 300 300 301 302 302 303 303 303 303 304 304 304 304 305 305 306 306 306 306 306 306 306 307 307 307 307 308 309 310 312 314 316 318 319 319 319 319 320 321 322 322 322 322 321 320 320 319 318
279 280 282 284 284 286 288 288 288 288 286 285 284 286 288 289 290 291 292 293 292 294 296 293 292 299 301 296 296 298 298 296 295 295 296 298 299 298 299 300 301 302 303 304 304 303 303 303 304 304 304 304 305 306 306 307 307 307 307 307 307 307 307 308 309 310 312 314 316 318 319 320 320 320 321 322 323 323 323 323 322 322 321 321 321 319
277 279 281 283 285 287 287 287 287 286 284 284 285 287 288 288 289 290 292 292 292 295 296 292 293 299 300 298 301 301 298 297 296 295 296 298 297 297 298 300 301 302 303 305 305 305 304 304 305 305 305 305 306 306 307 307 307 308 307 307 308 308 308 310 311 313 315 317 319 320 321 321 321 322 322 324 324 324 324 324 323 322 322 322 321 320
277 278 281 284 287 287 287 287 286 285 284 285 287 287 287 288 290 290 291 291 294 297 294 291 295 299 299 302 303 300 298 297 295 295 296 296 295 297 299 301 302 304 305 306 307 308 307 305 305 306 306 306 306 307 307 308 308 308 308 308 309 309 311 312 314 316 317 319 320 321 322 322 322 323 324 325 325 325 325 324 324 323 323 323 322 320
278 279 282 285 287 288 288 288 287 286 286 287 287 287 288 289 290 290 291 293 296 295 290 292 298 298 298 303 302 298 298 296 295 295 295 294 295 297 299 301 303 304 305 306 308 308 307 306 306 306 306 306 307 307 308 308 308 309 309 310 311 312 313 315 316 317 318 320 321 322 323 323 323 324 325 326 326 326 326 325 325 324 324 323 322 320
278 280 282 285 286 287 287 288 287 286 286 287 286 287 289 291 291 293 295 295 294 290 289 295 299 296 298 302 299 296 296 295 295 296 295 295 296 297 299 302 303 303 304 306 308 308 307 306 306 306 306 307 308 308 308 309 309 310 311 312 313 314 316 317 318 318 319 320 321 322 323 324 324 325 326 327 327 327 327 326 326 325 324 323 322 320
278 280 283 284 284 284 284 285 285 285 285 285 285 287 290 292 294 296 295 293 291 289 292 297 296 295 299 301 297 295 295 295 296 296 297 297 297 298 301 302 303 303 304 306 307 306 306 306 306 307 307 307 308 308 309 310 311 312 313 314 315 316 317 318 318 319 320 321 322 323 324 324 325 326 327 328 328 328 328 328 327 326 325 323 322 320
278 279 281 282 281 281 282 283 283 283 283 283 283 285 290 294 295 293 291 291 291 291 294 295 293 293 298 298 294 294 296 296 297 298 299 299 298 300 302 303 303 304 305 306 306 305 306 306 307 307 308 308 309 310 311 312 313 313 314 316 317 318 318 318 319 319 320 321 322 323 324 325 326 327 328 329 329 329 329 328 328 326 325 323 322 320
278 279 279 280 280 280 281 282 281 281 281 281 281 285 292 293 290 288 289 291 292 293 294 292 291 294 296 293 292 294 295 296 298 299 299 300 300 302 303 304 305 305 305 306 306 306 307 307 307 308 309 310 311 311 312 313 314 314 316 317 318 318 318 318 319 320 321 322 322 324 325 326 327 328 328 329 330 330 330 329 328 326 325 323 322 320
278 279 279 279 279 279 279 278 278 279 279 279 282 288 291 288 286 288 291 292 292 292 291 291 293 295 293 291 292 294 295 297 299 299 300 301 303 303 304 306 307 307 307 306 307 307 307 308 308 309 309 311 312 313 313 314 315 316 317 318 318 318 318 319 320 321 321 322 323 324 326 327 328 328 329 330 330 330 330 329 328 326 325 324 322 320
279 280 280 280 280 279 278 277 277 277 276 278 284 288 286 285 288 291 291 290 289 290 291 292 294 293 292 292 293 294 296 298 299 299 301 303 303 303 305 308 309 308 307 307 308 308 308 308 308 309 310 311 313 313 314 315 316 317 318 319 318 318 319 319 320 321 322 322 323 325 327 328 329 329 330 330 331 331 330 329 328 327 325 323 321 319
281 281 281 281 281 281 280 279 278 277 278 281 284 283 283 287 290 289 288 288 289 290 292 293 293 291 291 292 294 295 298 299 299 300 303 303 302 304 307 309 308 308 307 308 308 308 308 308 309 310 311 312 313 314 315 316 317 317 318 319 319 319 319 320 320 321 322 323 324 326 327 328 329 330 330 330 331 331 330 329 328 327 325 323 321 319
281 281 281 282 283 283 283 281 279 279 281 282 281 283 286 288 287 286 286 287 290 292 292 292 291 290 289 291 294 297 299 298 299 302 303 302 303 306 308 308 308 308 308 308 307 307 308 308 309 310 311 313 314 315 315 316 317 317 318 319 319 319 319 319 320 321 322 323 324 326 327 328 329 330 330 330 330 330 330 329 328 326 325 323 321 319
280 281 281 282 283 284 284 283 281 281 282 282 285 288 288 287 285 285 285 287 291 293 292 291 290 288 288 291 295 298 299 299 301 302 302 302 305 307 307 307 307 307 307 307 306 307 307 308 309 310 312 313 314 315 315 316 316 317 318 318 318 318 318 319 320 321 321 323 324 326 327 328 329 329 329 329 329 329 329 329 328 326 325 323 320 318
280 281 282 283 284 284 284 283 282 282 282 284 289 290 289 288 288 288 288 290 294 296 293 289 287 286 289 294 297 299 300 300 301 302 302 303 305 306 306 306 307 307 306 306 306 306 307 308 309 310 312 313 314 314 315 315 316 317 317 317 317 317 318 319 319 320 321 323 324 325 327 328 329 328 328 328 328 328 328 328 327 326 324 322 320 318
281 282 282 283 283 284 284 284 283 283 283 286 291 291 290 290 290 291 290 292 299 300 293 287 287 289 294 298 299 300 300 301 301 301 301 303 304 305 305 306 306 305 305 305 305 305 306 307 309 310 312 312 313 313 314 314 315 316 316 316 317 317 317 318 319 320 321 322 324 325 326 327 328 327 327 327 327 328 328 328 327 325 324 322 319 318
280 281 281 281 282 284 285 285 284 284 285 289 292 291 290 290 291 290 290 295 303 299 289 287 291 295 298 300 299 299 300 300 300 301 301 303 304 305 306 306 306 306 306 305 305 305 306 307 308 309 310 311 312 312 313 314 314 315 315 316 316 316 317 318 318 319 320 322 323 324 325 326 326 326 326 326 327 327 328 327 326 325 323 321 318 317
278 279 280 281 282 284 285 285 285 286 288 291 292 292 291 290 289 290 293 300 300 292 289 292 295 296 298 298 298 298 299 299 300 302 303 304 305 306 306 306 306 306 306 306 305 305 305 306 307 308 309 309 310 311 312 313 313 314 314 315 315 316 316 317 318 319 320 321 322 323 324 325 325 325 325 325 326 327 327 327 326 325 323 320 318 317
277 278 279 281 282 283 285 286 287 287 289 291 292 292 290 288 289 293 297 297 294 292 294 295 294 295 297 297 297 298 299 300 302 303 304 304 305 305 305 305 306 305 305 305 305 304 304 305 306 307 308 309 309 310 311 312 313 313 314 314 314 315 316 317 317 318 319 321 322 323 323 324 324 324 324 325 326 327 327 327 326 324 322 320 318 317
276 277 278 280 282 284 286 287 287 287 289 291 290 289 289 290 294 296 295 293 293 294 295 294 294 296 297 298 298 299 300 302 303 302 303 303 303 303 303 304 304 303 303 304 304 304 304 304 305 306 307 308 308 309 310 311 312 313 313 313 314 315 315 316 317 318 319 320 321 322 322 323 323 323 323 324 325 326 327 327 325 324 322 319 318 317
274 275 277 280 282 283 283 283 284 287 289 288 287 287 290 292 293 293 292 293 294 294 294 294 295 296 296 297 297 298 300 302 301 301 301 301 301 301 302 302 302 302 302 303 303 303 303 304 305 306 306 307 307 308 309 310 311 312 312 313 313 314 315 316 317 318 319 320 321 321 321 322 322 322 322 323 325 326 327 326 325 323 321 319 317 317
273 275 277 279 279 279 279 281 284 285 285 285 286 287 289 290 291 292 293 293 293 293 294 294 294 294 295 295 296 298 300 300 299 299 299 299 300 300 301 301 301 301 301 302 302 303 303 303 304 305 306 306 307 308 309 310 310 311 311 312 313 313 314 315 317 318 319 319 320 320 321 321 321 321 322 323 324 326 327 326 324 322 320 318 316 317
273 275 276 276 276 277 278 280 282 283 283 285 285 286 286 288 290 292 291 291 291 292 293 293 293 293 294 294 296 298 299 298 298 298 298 299 299 300 300 300 300 300 301 302 302 303 303 304 304 305 305 306 306 307 308 309 310 310 311 311 312 313 314 315 316 317 318 319 319 319 320 320 320 321 321 323 324 326 326 325 324 321 319 317 315 317
272 273 274 274 275 276 277 278 280 281 283 283 283 284 286 288 289 289 289 289 290 291 291 291 292 293 293 294 296 297 297 296 297 297 297 298 298 299 299 300 300 300 301 301 302 303 303 304 305 305 305 305 306 307 308 308 309 310 310 311 312 313 314 315 316 317 318 318 318 319 319 319 320 320 321 322 324 325 326 325 323 320 318 316 315 317
271 272 272 273 273 274 276 278 280 280 281 281 282 284 285 286 286 287 287 287 288 289 290 291 291 292 292 293 294 295 295 295 295 295 296 296 297 298 299 299 299 300 300 301 302 302 303 304 304 304 305 305 306 307 307 308 309 309 310 311 312 313 314 315 316 316 317 317 317 318 318 319 319 320 321 322 324 325 326 325 322 319 317 314 314 316
270 270 270 271 271 273 275 277 279 279 280 281 281 282 283 284 285 285 285 286 287 288 289 290 290 291 292 292 292 293 293 293 293 293 294 295 296 297 297 297 298 299 299 300 301 302 302 303 304 304 304 305 306 306 307 308 308 309 309 311 312 313 314 315 315 315 316 316 317 317 318 318 319 319 320 322 323 325 325 324 322 318 315 313 313 316
270 270 269 270 271 272 274 276 278 278 279 279 280 281 283 283 283 283 283 285 286 287 288 289 289 290 290 290 291 291 291 291 291 292 293 294 295 295 296 296 297 298 299 300 300 301 302 303 303 304 304 305 305 306 306 307 308 308 309 311 312 313 313 314 314 315 315 315 316 316 317 317 318 319 320 322 323 325 325 324 321 317 314 312 312 316
268 268 269 269 270 272 273 275 276 276 276 278 279 280 281 281 281 281 282 284 285 287 287 287 288 288 287 287 288 288 289 290 290 291 292 293 294 294 295 296 296 297 298 298 299 300 301 302 303 304 304 304 304 305 306 306 307 308 309 310 311 312 312 313 313 314 314 314 315 316 316 317 318 319 320 322 323 325 325 324 320 316 312 311 312 315
267 268 269 270 270 272 273 275 275 275 276 277 278 278 278 278 278 279 281 283 284 285 286 286 286 286 285 286 287 288 288 289 290 290 291 292 293 293 294 295 295 296 297 297 298 299 300 301 302 302 303 303 304 305 305 306 307 308 309 309 310 311 311 312 312 313 313 313 314 315 316 316 317 319 320 322 323 324 325 323 320 316 312 311 312 315
Height
10766 10766 10764 10765 10765 10763 10762 10761 10759 10759 10758 10757 10755 10754 10752 10751 10750 10746 10746 10748 10750 10752 10747 10744 10748 10745 10738 10733 10728 10729 10730 10726 10723 10722 10721 10720 10719 10717 10715 10714 10712 10711 10710 10708 10705 10702 10699 10695 10692 10690 10688 10685 10683 10679 10677 10675 10672 10669 10666 10662 10659 10655 10652 10648 10644 10639 10635 10629 10623 10618 10613 10607 10602 10596 10590 10583 10576 10568 10560 10553 10546 10538 10530 10522 10514 10507
10761 10759 10757 10759 10760 10757 10757 10755 10754 10754 10753 10753 10751 10750 10747 10746 10748 10744 10741 10742 10744 10747 10745 10741 10744 10742 10735 10731 10725 10723 10723 10719 10717 10716 10715 10715 10713 10711 10709 10708 10707 10706 10704 10702 10700 10697 10693 10689 10686 10683 10681 10678 10676 10673 10670 10668 10665 10662 10659 10655 10651 10648 10644 10640 10635 10631 10626 10621 10615 10610 10605 10598 10592 10586 10580 10572 10564 10556 10548 10540 10533 10525 10517 10509 10500 10492
10755 10753 10750 10752 10753 10752 10751 10749 10748 10749 10748 10748 10746 10745 10743 10742 10744 10742 10737 10737 10738 10740 10742 10739 10741 10740 10733 10728 10722 10720 10718 10711 10710 10710 10709 10708 10705 10703 10702 10701 10700 10699 10698 10697 10694 10690 10686 10682 10679 10677 10674 10671 10669 10666 10663 10661 10658 10655 10652 10647 10643 10640 10636 10631 10627 10622 10617 10613 10608 10602 10597 10591 10584 10578 10571 10563 10555 10547 10538 10529 10521 10514 10506 10497 10488 10479
10749 10746 10745 10745 10746 10746 10745 10743 10742 10743 10744 10743 10741 10739 10739 10737 10739 10739 10735 10733 10732 10733 10736 10735 10738 10738 10732 10725 10716 10715 10717 10706 10701 10704 10703 10700 10697 10694 10694 10692 10692 10692 10691 10690 10687 10684 10680 10676 10673 10670 10668 10664 10661 10659 10656 10653 10651 10647 10644 10639 10635 10631 10627 10623 10619 10614 10609 10604 10599 10594 10588 10583 10576 10569 10562 10554 10546 10538 10529 10520 10510 10502 10495 10486 10477 10468
10742 10738 10739 10739 10739 10739 10738 10736 10735 10737 10740 10738 10734 10733 10734 10733 10732 10734 10733 10731 10729 10727 10727 10727 10733 10738 10734 10725 10711 10707 10711 10703 10697 10699 10695 10690 10687 10685 10685 10684 10684 10684 10683 10682 10679 10676 10673 10669 10666 10663 10660 10657 10654 10651 10648 10645 10642 10639 10636 10631 10627 10623 10619 10615 10610 10605 10601 10595 10590 10584 10578 10572 10566 10558 10551 10543 10535 10526 10517 10507 10497 10488 10480 10473 10464 10455
10735 10729 10732 10733 10732 10732 10731 10729 10727 10731 10735 10733 10728 10725 10728 10729 10727 10727 10727 10728 10728 10724 10723 10718 10720 10734 10737 10726 10712 10704 10702 10696 10695 10698 10690 10682 10680 10678 10677 10677 10677 10677 10676 10674 10671 10668 10665 10662 10659 10656 10653 10649 10646 10643 10640 10637 10634 10631 10627 10623 10619 10615 10610 10606 10602 10596 10591 10586 10581 10575 10568 10562 10555 10547 10538 10530 10522 10513 10504 10494 10484 10474 10464 10457 10449 10440
10727 10723 10725 10726 10726 10726 10724 10722 10720 10723 10728 10728 10723 10718 10720 10722 10721 10722 10720 10721 10723 10721 10723 10712 10705 10726 10738 10725 10712 10704 10696 10690 10692 10696 10687 10678 10675 10673 10672 10673 10673 10672 10670 10668 10664 10661 10658 10655 10652 10648 10645 10642 10638 10636 10633 10630 10627 10623 10619 10615 10610 10606 10602 10597 10592 10587 10582 10576 10571 10564 10558 10551 10545 10538 10528 10519 10511 10502 10493 10483 10473 10463 10452 10442 10435 10426
10720 10719 10719 10718 10720 10720 10716 10715 10715 10715 10719 10721 10718 10713 10714 10714 10714 10716 10713 10714 10715 10717 10721 10707 10694 10715 10733 10723 10711 10701 10691 10686 10689 10688 10680 10672 10670 10667 10667 10669 10669 10667 10664 10661 10657 10654 10651 10648 10644 10640 10637 10634 10631 10628 10625 10622 10619 10614 10610 10606 10601 10597 10593 10588 10582 10577 10572 10566 10560 10553 10546 10539 10532 10525 10517 10508 10499 10490 10481 10471 10460 10451 10441 10430 10421 10413
10713 10714 10713 10712 10713 10711 10709 10709 10708 10708 10710 10712 10710 10708 10708 10706 10706 10708 10707 10706 10707 10713 10716 10701 10690 10705 10720 10718 10706 10695 10688 10684 10684 10680 10670 10665 10663 10660 10662 10665 10664 10660 10657 10653 10650 10647 10644 10640 10636 10632 10628 10625 10622 10620 10617 10614 10610 10606 10601 10596 10592 10588 10584 10578 10572 10567 10561 10555 10549 10541 10534 10527 10519 10512 10504 10495 10486 10476 10467 10458 10447 10438 10429 10419 10409 10400
10706 10708 10707 10705 10705 10703 10702 10702 10701 10700 10701 10702 10702 10702 10700 10699 10700 10699 10700 10699 10699 10708 10708 10695 10690 10698 10710 10711 10696 10686 10685 10680 10677 10672 10662 10659 10656 10654 10657 10659 10656 10653 10649 10646 10643 10639 10636 10632 10628 10624 10620 10617 10615 10612 10609 10605 10601 10597 10592 10587 10583 10579 10574 10568 10562 10556 10550 10543 10536 10528 10521 10514 10506 10498 10490 10481 10472 10462 10453 10444 10434 10424 10415 10406 10396 10387
10699 10701 10700 10698 10697 10696 10695 10695 10694 10692 10692 10692 10693 10693 10691 10692 10693 10691 10692 10691 10691 10701 10698 10688 10689 10693 10700 10702 10687 10680 10680 10673 10669 10663 10656 10653 10648 10647 10651 10651 10647 10645 10642 10639 10636 10632 10628 10624 10620 10615 10612 10609 10607 10604 10600 10596 10592 10588 10583 10577 10573 10569 10563 10557 10551 10544 10537 10530 10522 10514 10507 10500 10492 10485 10477 10469 10459 10449 10440 10430 10420 10410 10401 10392 10382 10374
10694 10695 10693 10692 10690 10689 10689 10688 10687 10684 10684 10684 10684 10683 10682 10683 10683 10684 10686 10683 10684 10692 10689 10684 10687 10689 10692 10688 10677 10674 10672 10667 10662 10655 10650 10647 10641 10642 10645 10642 10638 10636 10634 10632 10628 10624 10620 10616 10612 10608 10605 10602 10598 10595 10591 10587 10583 10578 10573 10568 10563 10558 10552 10546 10539 10532 10524 10516 10508 10499 10492 10485 10478 10472 10464 10457 10448 10437 10428 10418 10408 10398 10388 10379 10369 10361
10690 10690 10687 10685 10684 10683 10682 10680 10678 10677 10677 10677 10676 10673 10672 10673 10672 10676 10680 10677 10677 10681 10678 10678 10682 10685 10685 10679 10670 10667 10662 10658 10653 10647 10645 10639 10635 10638 10638 10633 10631 10629 10627 10624 10620 10616 10612 10608 10604 10600 10596 10593 10589 10585 10581 10577 10573 10568 10563 10558 10552 10546 10540 10533 10526 10519 10510 10502 10493 10485 10478 10471 10464 10458 10450 10443 10434 10423 10414 10404 10395 10386 10376 10367 10358 10349
10683 10687 10683 10676 10677 10677 10675 10671 10669 10670 10669 10669 10669 10665 10664 10662 10658 10665 10672 10669 10670 10672 10671 10672 10675 10679 10677 10671 10667 10661 10653 10648 10643 10640 10637 10631 10630 10632 10629 10625 10624 10622 10619 10616 10612 10607 10603 10599 10595 10591 10587 10583 10579 10575 10571 10567 10562 10557 10552 10547 10540 10533 10527 10520 10512 10505 10496 10487 10479 10472 10464 10458 10451 10444 10436 10427 10418 10408 10398 10389 10380 10372 10363 10355 10347 10338
10673 10684 10681 10669 10668 10670 10667 10664 10662 10661 10660 10661 10660 10657 10656 10652 10645 10651 10660 10657 10656 10663 10670 10667 10667 10671 10669 10665 10663 10655 10646 10640 10634 10632 10628 10622 10623 10623 10620 10618 10617 10615 10611 10606 10602 10598 10594 10590 10585 10581 10577 10572 10568 10564 10560 10555 10551 10546 10541 10534 10528 10521 10514 10507 10499 10491 10482 10474 10466 10458 10451 10444 10437 10429 10421 10411 10401 10391 10382 10373 10366 10357 10348 10340 10332 10324
10662 10676 10676 10665 10663 10662 10658 10658 10655 10652 10653 10654 10652 10649 10647 10644 10639 10639 10643 10642 10639 10649 10666 10665 10660 10663 10661 10659 10657 10646 10638 10631 10625 10624 10619 10613 10614 10613 10610 10610 10608 10605 10602 10596 10593 10589 10584 10580 10575 10571 10566 10562 10558 10553 10548 10544 10539 10533 10528 10521 10514 10507 10500 10493 10486 10477 10469 10461 10453 10445 10437 10429 10422 10413 10405 10395 10384 10375 10366 10358 10351 10343 10334 10325 10316 10309
10651 10662 10666 10660 10657 10656 10652 10651 10650 10648 10648 10645 10643 10642 10638 10636 10634 10628 10625 10629 10627 10633 10654 10659 10653 10657 10657 10653 10649 10638 10628 10621 10617 10616 10609 10603 10604 10603 10602 10602 10599 10596 10591 10587 10584 10580 10576 10571 10566 10561 10555 10551 10546 10541 10537 10532 10527 10521 10515 10508 10501 10494 10487 10480 10472 10464 10456 10449 10440 10432 10423 10415 10407 10398 10389 10379 10369 10360 10351 10342 10335 10327 10319 10310 10300 10293
10636 10644 10654 10652 10648 10648 10646 10644 10646 10646 10641 10636 10637 10636 10632 10628 10625 10617 10611 10617 10618 10620 10638 10649 10646 10649 10651 10646 10642 10632 10619 10612 10612 10608 10599 10594 10594 10594 10594 10593 10589 10585 10580 10578 10575 10570 10567 10561 10555 10550 10544 10539 10534 10528 10524 10519 10513 10508 10501 10495 10488 10481 10474 10466 10459 10451 10444 10436 10427 10419 10410 10401 10392 10383 10373 10363 10354 10345 10337 10328 10320 10312 10304 10294 10284 10276
10621 10624 10638 10644 10638 10638 10640 10640 10642 10639 10632 10631 10633 10630 10625 10619 10613 10607 10601 10606 10609 10606 10618 10635 10640 10644 10644 10637 10631 10622 10610 10605 10607 10600 10589 10584 10584 10584 10585 10583 10578 10573 10569 10567 10563 10559 10556 10549 10543 10538 10532 10527 10521 10516 10511 10505 10500 10494 10488 10482 10474 10467 10461 10453 10446 10439 10431 10423 10415 10406 10397 10387 10378 10368 10358 10348 10340 10331 10322 10314 10306 10298 10289 10280 10269 10260
10610 10606 10620 10632 10630 10629 10635 10637 10633 10630 10626 10625 10626 10624 10619 10608 10600 10598 10596 10598 10598 10592 10599 10615 10629 10641 10638 10627 10620 10610 10600 10598 10598 10590 10580 10575 10575 10576 10575 10572 10567 10563 10559 10555 10551 10547 10543 10536 10531 10527 10520 10515 10509 10503 10498 10492 10486 10481 10474 10468 10461 10454 10448 10440 10433 10426 10418 10410 10402 10393 10383 10374 10364 10354 10344 10335 10325 10317 10308 10299 10291 10283 10275 10266 10256 10246
10600 10594 10600 10616 10622 10626 10630 10628 10624 10624 10620 10616 10616 10615 10609 10598 10590 10591 10593 10594 10587 10582 10587 10592 10609 10635 10634 10617 10609 10599 10591 10593 10588 10578 10570 10566 10567 10568 10566 10561 10556 10553 10549 10544 10541 10536 10530 10524 10519 10514 10508 10502 10497 10491 10485 10480 10473 10467 10461 10454 10448 10441 10435 10428 10420 10413 10405 10397 10389 10380 10370 10361 10351 10341 10331 10321 10311 10302 10293 10285 10277 10269 10261 10252 10242 10232
10590 10582 10585 10601 10614 10620 10622 10620 10618 10617 10612 10608 10606 10603 10596 10589 10585 10582 10583 10588 10580 10575 10581 10575 10585 10623 10628 10605 10597 10590 10585 10585 10577 10565 10559 10556 10559 10558 10554 10550 10546 10542 10538 10533 10530 10525 10517 10513 10508 10502 10496 10490 10485 10479 10473 10467 10460 10454 10447 10441 10434 10428 10421 10414 10407 10399 10392 10383 10375 10366 10357 10347 10338 10327 10317 10307 10298 10289 10280 10271 10263 10254 10246 10238 10228 10217
10579 10570 10575 10591 10603 10609 10614 10614 10611 10607 10602 10597 10594 10592 10588 10584 10582 10573 10570 10578 10573 10570 10577 10562 10564 10605 10617 10593 10585 10584 10578 10574 10564 10554 10549 10548 10550 10547 10541 10539 10535 10531 10528 10523 10519 10513 10507 10502 10497 10490 10485 10479 10473 10467 10460 10454 10447 10440 10433 10427 10420 10414 10407 10400 10393 10386 10378 10369 10361 10352 10343 10334 10324 10314 10304 10295 10285 10276 10267 10258 10249 10240 10231 10223 10213 10203
10567 10563 10569 10578 10589 10599 10605 10606 10603 10597 10589 10584 10583 10585 10582 10579 10576 10567 10563 10565 10562 10566 10570 10548 10548 10588 10599 10579 10577 10576 10566 10561 10553 10543 10540 10540 10539 10535 10530 10527 10524 10519 10516 10511 10505 10500 10495 10490 10484 10479 10473 10467 10460 10454 10447 10440 10433 10426 10419 10413 10406 10399 10392 10386 10379 10372 10364 10356 10347 10339 10330 10321 10311 10302 10292 10282 10273 10264 10255 10246 10237 10227 10217 10209 10200 10190
10558 10558 10562 10567 10578 10590 10595 10596 10593 10586 10576 10572 10577 10579 10574 10571 10568 10562 10559 10552 10551 10563 10558 10533 10540 10573 10579 10567 10567 10563 10551 10547 10542 10533 10532 10532 10527 10523 10520 10516 10512 10508 10502 10497 10491 10487 10481 10476 10471 10465 10459 10453 10447 10440 10433 10426 10419 10412 10405 10398 10391 10384 10377 10371 10364 10358 10350 10343 10334 10326 10317 10308 10298 10289 10280 10271 10261 10252 10244 10234 10225 10215 10204 10195 10186 10177
10549 10553 10558 10561 10568 10576 10583 10585 10581 10574 10564 10563 10570 10570 10564 10564 10559 10556 10552 10542 10543 10552 10538 10525 10538 10555 10562 10562 10553 10545 10538 10533 10529 10526 10524 10520 10514 10511 10509 10504 10500 10495 10487 10482 10477 10472 10467 10461 10456 10451 10445 10439 10432 10426 10419 10412 10405 10398 10392 10384 10377 10369 10363 10356 10350 10344 10337 10330 10322 10314 10305 10295 10286 10277 10268 10259 10250 10241 10232 10222 10213 10203 10192 10182 10174 10164
10541 10547 10555 10559 10559 10562 10569 10571 10566 10559 10555 10555 10559 10557 10556 10556 10550 10548 10547 10540 10538 10528 10515 10528 10537 10529 10545 10559 10539 10526 10525 10519 10518 10519 10513 10507 10502 10500 10497 10492 10488 10481 10473 10469 10465 10458 10453 10447 10442 10437 10431 10424 10418 10412 10405 10398 10391 10384 10378 10371 10363 10355 10349 10342 10336 10330 10324 10317 10310 10302 10293 10284 10275 10266 10257 10248 10239 10230 10221 10211 10200 10190 10180 10170 10161 10152
10532 10537 10550 10555 10550 10550 10555 10557 10551 10544 10543 10545 10545 10546 10550 10547 10540 10541 10542 10537 10528 10504 10499 10531 10533 10509 10528 10547 10524 10509 10510 10505 10507 10507 10499 10495 10492 10487 10484 10480 10474 10467 10461 10457 10452 10445 10440 10434 10429 10424 10417 10411 10405 10398 10391 10384 10377 10371 10364 10357 10349 10342 10336 10329 10324 10318 10312 10305 10298 10290 10282 10273 10263 10254 10245 10237 10228 10218 10209 10199 10188 10178 10168 10159 10149 10139
10523 10528 10543 10544 10536 10539 10545 10545 10538 10529 10529 10532 10531 10536 10544 10540 10534 10534 10533 10528 10516 10494 10496 10522 10517 10501 10520 10526 10503 10496 10495 10488 10491 10492 10485 10482 10478 10473 10471 10466 10459 10454 10449 10444 10438 10432 10426 10421 10416 10409 10403 10397 10391 10384 10376 10370 10363 10357 10350 10343 10336 10329 10323 10317 10312 10306 10300 10294 10287 10278 10270 10261 10252 10243 10234 10225 10216 10206 10197 10187 10177 10167 10157 10147 10137 10128
10515 10519 10534 10530 10520 10526 10536 10536 10525 10514 10514 10516 10519 10531 10539 10533 10527 10523 10517 10514 10506 10494 10499 10506 10495 10500 10519 10506 10482 10484 10485 10473 10473 10476 10473 10467 10462 10459 10456 10450 10445 10441 10435 10430 10424 10418 10412 10406 10401 10395 10389 10384 10377 10369 10362 10356 10350 10343 10337 10330 10323 10317 10311 10305 10300 10294 10288 10282 10275 10267 10259 10250 10241 10232 10222 10213 10204 10195 10186 10176 10166 10156 10147 10136 10126 10117
10507 10509 10521 10517 10504 10511 10528 10525 10508 10501 10500 10496 10506 10531 10537 10520 10509 10507 10505 10505 10498 10489 10491 10488 10481 10496 10512 10491 10470 10474 10473 10462 10461 10462 10457 10452 10448 10444 10439 10434 10431 10426 10420 10414 10409 10403 10397 10391 10386 10380 10375 10369 10362 10355 10348 10342 10336 10330 10323 10317 10311 10304 10299 10293 10288 10282 10276 10270 10263 10255 10247 10239 10230 10220 10211 10202 10192 10183 10174 10165 10156 10147 10137 10126 10116 10106
10496 10496 10505 10502 10487 10496 10515 10508 10493 10492 10485 10479 10504 10534 10525 10497 10489 10496 10500 10497 10487 10478 10474 10472 10476 10486 10489 10476 10466 10464 10459 10454 10453 10449 10442 10439 10434 10427 10423 10421 10417 10410 10404 10398 10393 10388 10382 10377 10372 10367 10361 10355 10348 10342 10335 10328 10322 10316 10310 10304 10298 10291 10286 10281 10275 10270 10264 10258 10251 10243 10236 10227 10218 10209 10199 10190 10181 10173 10164 10155 10146 10136 10126 10116 10105 10096
10487 10484 10488 10484 10470 10476 10493 10490 10482 10477 10466 10476 10512 10522 10498 10481 10483 10488 10488 10483 10475 10467 10460 10463 10469 10468 10461 10457 10454 10452 10450 10447 10442 10436 10433 10428 10419 10411 10410 10409 10402 10395 10390 10384 10379 10374 10368 10364 10359 10354 10349 10342 10335 10329 10322 10315 10309 10303 10297 10292 10285 10279 10273 10267 10263 10257 10251 10245 10239 10232 10224 10216 10207 10198 10188 10179 10171 10162 10154 10145 10135 10125 10116 10105 10095 10085
10477 10474 10471 10465 10455 10455 10468 10472 10463 10454 10458 10485 10506 10496 10481 10483 10481 10471 10466 10467 10466 10459 10451 10453 10455 10448 10441 10439 10436 10436 10441 10437 10429 10427 10424 10413 10402 10399 10399 10395 10387 10381 10376 10371 10365 10360 10355 10351 10346 10341 10336 10329 10323 10316 10309 10302 10296 10290 10284 10279 10272 10266 10260 10255 10250 10244 10239 10233 10227 10220 10213 10204 10196 10187 10177 10169 10160 10151 10143 10134 10124 10115 10104 10094 10084 10075
10462 10460 10454 10450 10443 10437 10444 10447 10436 10436 10458 10479 10482 10479 10480 10478 10467 10453 10448 10454 10461 10455 10444 10439 10435 10428 10424 10423 10420 10420 10424 10422 10418 10416 10408 10393 10387 10389 10387 10380 10373 10367 10363 10357 10351 10346 10342 10337 10333 10328 10323 10316 10310 10304 10296 10290 10284 10278 10272 10266 10260 10254 10248 10243 10237 10232 10226 10221 10215 10209 10201 10193 10185 10176 10167 10158 10149 10141 10132 10123 10114 10104 10094 10084 10073 10064
10447 10442 10438 10436 10430 10423 10422 10421 10415 10421 10443 10460 10469 10475 10470 10456 10448 10438 10431 10444 10459 10452 10436 10425 10414 10406 10405 10408 10409 10409 10406 10403 10404 10402 10388 10375 10375 10378 10372 10366 10361 10355 10351 10345 10338 10334 10329 10324 10321 10316 10310 10304 10297 10291 10284 10278 10272 10266 10260 10254 10248 10242 10236 10231 10226 10220 10214 10209 10204 10197 10189 10181 10173 10165 10156 10148 10139 10131 10122 10113 10103 10093 10083 10074 10062 10053
10431 10427 10424 10419 10414 10409 10403 10398 10398 10402 10418 10444 10464 10464 10447 10434 10431 10419 10409 10431 10458 10450 10427 10407 10391 10386 10391 10396 10398 10397 10389 10384 10388 10387 10372 10360 10364 10365 10358 10355 10350 10343 10338 10333 10327 10322 10317 10312 10309 10303 10297 10291 10284 10278 10273 10266 10261 10255 10249 10244 10237 10231 10225 10220 10215 10209 10203 10198 10192 10185 10177 10170 10162 10154 10146 10137 10130 10122 10113 10103 10093 10083 10073 10063 10053 10043
10417 10412 10410 10401 10394 10394 10387 10380 10383 10383 10396 10429 10451 10445 10428 10417 10413 10399 10387 10414 10453 10446 10411 10383 10370 10372 10381 10384 10383 10379 10371 10367 10372 10373 10359 10350 10352 10351 10345 10343 10338 10330 10326 10321 10315 10310 10305 10300 10297 10291 10285 10279 10273 10267 10262 10255 10250 10245 10239 10233 10227 10220 10215 10210 10204 10199 10192 10187 10181 10174 10166 10158 10151 10144 10136 10127 10121 10113 10104 10094 10083 10073 10062 10052 10042 10034
10401 10396 10395 10383 10376 10380 10375 10367 10366 10366 10381 10412 10425 10419 10412 10403 10396 10382 10375 10406 10441 10426 10387 10367 10360 10362 10370 10369 10364 10360 10354 10351 10355 10356 10347 10339 10337 10335 10331 10328 10322 10316 10312 10307 10302 10298 10293 10289 10285 10280 10274 10268 10262 10256 10251 10245 10240 10234 10228 10223 10216 10209 10205 10199 10193 10188 10181 10175 10169 10162 10155 10147 10140 10134 10127 10118 10111 10103 10095 10085 10074 10063 10052 10041 10031 10024
10385 10382 10378 10367 10363 10368 10362 10353 10352 10355 10370 10394 10400 10394 10390 10383 10374 10368 10375 10404 10415 10389 10367 10364 10357 10354 10357 10355 10349 10347 10341 10336 10337 10338 10332 10325 10322 10320 10316 10312 10308 10303 10299 10294 10290 10287 10282 10278 10275 10269 10263 10257 10251 10245 10239 10234 10229 10223 10217 10211 10205 10199 10194 10188 10182 10176 10170 10163 10157 10150 10143 10137 10130 10124 10117 10109 10102 10094 10085 10076 10065 10053 10043 10031 10020 10013
10370 10368 10363 10355 10352 10353 10349 10342 10341 10343 10359 10377 10380 10372 10364 10356 10355 10365 10377 10384 10375 10360 10360 10360 10347 10343 10345 10340 10336 10333 10327 10323 10322 10320 10316 10311 10308 10306 10302 10298 10295 10291 10286 10283 10279 10276 10272 10268 10264 10259 10253 10246 10239 10233 10228 10223 10217 10212 10205 10199 10193 10188 10183 10177 10171 10165 10158 10152 10146 10139 10132 10126 10119 10113 10107 10100 10093 10085 10076 10066 10055 10043 10033 10022 10011 10005
10356 10352 10347 10343 10342 10342 10340 10333 10325 10328 10352 10367 10358 10345 10340 10338 10346 10359 10360 10355 10350 10349 10350 10343 10333 10330 10327 10322 10319 10315 10312 10313 10309 10304 10302 10298 10294 10293 10290 10287 10284 10279 10275 10272 10268 10265 10262 10257 10252 10248 10241 10234 10228 10222 10217 10211 10206 10200 10194 10188 10182 10176 10171 10165 10159 10153 10147 10140 10133 10127 10121 10114 10108 10102 10096 10090 10083 10076 10067 10057 10045 10034 10023 10012 10003 9997
10339 10335 10331 10336 10340 10333 10323 10318 10315 10323 10346 10353 10336 10325 10328 10332 10337 10341 10336 10333 10337 10337 10331 10325 10319 10313 10309 10309 10306 10300 10301 10303 10296 10290 10289 10285 10281 10280 10277 10275 10272 10268 10264 10261 10256 10254 10250 10245 10240 10236 10229 10222 10216 10210 10206 10200 10195 10189 10182 10176 10171 10165 10159 10154 10147 10141 10135 10128 10121 10115 10109 10103 10097 10091 10085 10079 10073 10066 10059 10049 10037 10025 10013 10002 9994 9989
10319 10324 10327 10330 10328 10315 10304 10306 10315 10323 10331 10332 10325 10321 10319 10318 10325 10328 10319 10314 10319 10319 10315 10313 10307 10298 10295 10296 10293 10290 10292 10290 10282 10277 10276 10272 10269 10267 10263 10261 10259 10254 10251 10248 10244 10241 10237 10232 10229 10223 10216 10211 10205 10199 10195 10189 10183 10177 10171 10164 10159 10153 10147 10141 10135 10129 10123 10116 10109 10103 10097 10091 10086 10080 10074 10068 10062 10056 10049 10039 10029 10017 10004 9993 9985 9982
10306 10319 10320 10310 10301 10298 10298 10301 10308 10314 10317 10318 10317 10314 10307 10305 10315 10319 10307 10299 10301 10302 10299 10297 10293 10288 10284 10281 10281 10282 10280 10274 10269 10266 10263 10259 10256 10252 10249 10247 10244 10240 10238 10235 10231 10228 10224 10220 10217 10211 10204 10198 10193 10188 10183 10177 10171 10165 10158 10152 10146 10140 10134 10128 10122 10116 10110 10104 10097 10091 10085 10079 10073 10068 10062 10057 10052 10047 10040 10030 10019 10008 9996 9985 9977 9974
10298 10307 10301 10290 10284 10283 10285 10290 10300 10308 10309 10305 10301 10301 10301 10300 10304 10303 10294 10289 10289 10288 10284 10282 10280 10276 10271 10268 10269 10270 10265 10260 10257 10253 10250 10246 10242 10238 10236 10232 10229 10227 10224 10222 10218 10215 10211 10208 10204 10198 10192 10186 10181 10177 10171 10165 10159 10153 10146 10139 10134 10127 10121 10115 10109 10104 10098 10092 10086 10080 10073 10067 10061 10055 10050 10044 10039 10034 10028 10020 10009 9997 9987 9977 9970 9966
10287 10293 10283 10275 10271 10265 10266 10281 10298 10301 10294 10290 10289 10291 10294 10293 10290 10286 10280 10275 10275 10273 10270 10269 10267 10262 10259 10257 10256 10255 10251 10247 10244 10241 10237 10233 10228 10226 10222 10218 10215 10213 10210 10208 10206 10202 10198 10196 10191 10184 10179 10174 10169 10164 10158 10152 10147 10140 10133 10127 10121 10115 10108 10102 10096 10091 10085 10080 10075 10069 10063 10056 10049 10043 10037 10032 10028 10022 10015 10007 9996 9985 9975 9967 9962 9959
10271 10276 10265 10258 10256 10254 10257 10274 10289 10287 10279 10279 10280 10280 10282 10281 10276 10271 10265 10259 10259 10259 10257 10256 10254 10250 10247 10244 10242 10240 10237 10234 10231 10227 10223 10219 10216 10213 10208 10204 10202 10199 10196 10195 10193 10188 10185 10183 10177 10171 10166 10161 10157 10152 10146 10140 10134 10127 10120 10115 10108 10103 10096 10090 10085 10079 10073 10068 10063 10058 10052 10046 10040 10033 10025 10019 10015 10011 10005 9996 9984 9972 9963 9957 9954 9953
10251 10250 10244 10245 10246 10244 10250 10268 10280 10274 10264 10264 10268 10269 10269 10266 10260 10254 10248 10244 10245 10246 10246 10245 10241 10236 10234 10231 10228 10226 10223 10221 10218 10213 10209 10207 10204 10198 10194 10191 10187 10185 10183 10181 10178 10175 10173 10168 10163 10159 10153 10148 10144 10140 10134 10128 10121 10114 10108 10102 10096 10091 10085 10079 10073 10067 10061 10057 10052 10047 10042 10036 10030 10024 10017 10008 10001 9995 9990 9984 9974 9962 9951 9945 9943 9945
10227 10226 10232 10237 10234 10231 10244 10263 10269 10258 10246 10250 10260 10261 10255 10249 10244 10238 10234 10233 10234 10234 10232 10230 10226 10223 10222 10219 10215 10213 10211 10208 10204 10199 10196 10194 10189 10184 10181 10177 10173 10170 10169 10166 10164 10162 10159 10155 10151 10146 10140 10136 10132 10127 10122 10116 10109 10102 10096 10090 10084 10079 10073 10067 10062 10056 10050 10046 10041 10036 10031 10025 10019 10014 10008 10001 9992 9983 9973 9965 9957 9949 9940 9933 9932 9935
10209 10213 10221 10222 10218 10223 10239 10252 10253 10242 10233 10238 10249 10250 10242 10233 10228 10225 10224 10223 10223 10220 10215 10210 10209 10208 10207 10205 10203 10201 10198 10196 10191 10186 10182 10179 10175 10172 10168 10163 10159 10157 10154 10152 10151 10149 10146 10143 10138 10133 10128 10124 10120 10115 10109 10103 10096 10090 10084 10078 10072 10067 10062 10056 10050 10045 10040 10035 10030 10026 10020 10014 10008 10003 9998 9992 9986 9977 9966 9953 9941 9932 9925 9920 9920 9923